Torna al catalogo

STARLINK-30460

AttivoComunicazioniVLEO
NORAD 57870·PAYLOAD·🇺🇸 United States

Lanciato Sep 16, 2023 da Cape Canaveral Space Force Station

Loading…

Prossimi Passaggi (prossime 24 ore)

TLE

AggiornatoSource: CelesTrak SupGP

Epoca: Sep 14, 2026, 22:20 UTC

1 57870C 23144G   26257.93104167  .00008724  00000+0  31588-3 0  2579
2 57870  43.0027 296.5061 0001541 300.3318 252.6237 15.27583382    15

Traccia STARLINK-30460 in tempo reale con AllMySat

Download on the App Store